Farmington, MO

9:48 AM CST on December 06, 2019 (GMT -0600)
Farmington Regional

Weather History for KFAM - July, 2019

Change the Weather History Date:

Saturday, July 13, 2019

  Actual Average Record
Temperature  
Mean Temperature 75 °F -  
Max Temperature 89 °F 84 °F 98 °F (2017)
Min Temperature 62 °F 64 °F 53 °F (1999)
Cooling Degree Days 10    
Growing Degree Days 25 (Base 50)    
Moisture  
Dew Point 66 °F    
Average Humidity 75    
Maximum Humidity 100    
Minimum Humidity 49    
Precipitation  
Precipitation 0.00 in - - ()
Sea Level Pressure  
Sea Level Pressure 30.06 in    
Wind  
Wind Speed 1 mph (East)    
Max Wind Speed 8 mph    
Max Gust Speed -    
Visibility 9 miles    
Events      
Averages and records for this station are not official NWS values.
T = Trace of Precipitation, MM = Missing Value Source: NWS Daily Summary

Daily Weather History Graph

Daily Weather History Graph

Search for Another Location

Airport or City:

Astronomy

Jul. 13, 2019 Rise Set
Actual Time 5:50 AM CDT 8:24 PM CDT
Civil Twilight 5:19 AM CDT 8:54 PM CDT
Nautical Twilight 4:41 AM CDT 9:32 PM CDT
Astronomical Twilight 3:59 AM CDT 10:14 PM CDT
Moon 5:47 PM CDT (7/13) 3:09 AM CDT (7/13)
Length of Visible Light 15h 35m
Length of Day
14h 33m
Waxing Gibbous, 90% of the Moon is Illuminated
Jul 13
Waxing Gibbous
Jul 16
Full
Jul 24
Last Quarter
Jul 31
New
Aug 7
First Quarter

Hourly Weather History & Observations

Time (CDT) Temp. Heat Index Dew Point Humidity Pressure Visibility Wind Dir Wind Speed Gust Speed Precip Events Conditions
12:56 AM 66.9 °F - 66.9 °F 100% 30.01 in 8.0 mi Calm Calm - N/A   Clear
1:56 AM 66.9 °F - 66.0 °F 97% 30.01 in 7.0 mi Calm Calm - N/A   Clear
2:56 AM 66.0 °F - 64.9 °F 96% 30.02 in 9.0 mi Calm Calm - N/A   Clear
3:56 AM 64.0 °F - 64.0 °F 100% 30.02 in 3.0 mi Calm Calm - N/A   Clear
4:56 AM 64.0 °F - 63.0 °F 96% 30.04 in 10.0 mi Calm Calm - N/A   Clear
5:56 AM 64.0 °F - 63.0 °F 96% 30.05 in 7.0 mi Calm Calm - N/A   Clear
6:08 AM 62.6 °F - 62.6 °F 100% 30.04 in 1.5 mi Calm Calm - N/A   Clear
6:18 AM 62.6 °F - 62.6 °F 100% 30.04 in 3.0 mi Calm Calm - N/A   Clear
6:56 AM 66.0 °F - 64.0 °F 93% 30.06 in 10.0 mi Calm Calm - N/A   Clear
7:56 AM 72.0 °F - 66.9 °F 84% 30.07 in 10.0 mi Calm Calm - N/A   Clear
8:56 AM 77.0 °F - 66.9 °F 71% 30.09 in 10.0 mi ESE 4.6 mph - N/A   Clear
9:56 AM 81.0 °F 83.0 °F 66.0 °F 60% 30.09 in 10.0 mi East 4.6 mph - N/A   Partly Cloudy
10:56 AM 82.9 °F 84.6 °F 64.9 °F 54% 30.09 in 10.0 mi East 5.8 mph - N/A   Clear
11:56 AM 84.0 °F 85.8 °F 64.9 °F 53% 30.09 in 10.0 mi Variable 3.5 mph - N/A   Clear
12:56 PM 86.0 °F 88.2 °F 66.0 °F 51% 30.08 in 10.0 mi Variable 5.8 mph - N/A   Clear
1:56 PM 87.1 °F 89.2 °F 66.0 °F 49% 30.08 in 10.0 mi SE 4.6 mph - N/A   Clear
2:56 PM 88.0 °F 91.4 °F 68.0 °F 51% 30.06 in 10.0 mi North 8.1 mph - N/A   Clear
3:56 PM 88.0 °F 91.4 °F 68.0 °F 51% 30.06 in 10.0 mi NE 4.6 mph - N/A   Clear
5:56 PM 88.0 °F 91.4 °F 68.0 °F 51% 30.03 in 10.0 mi Calm Calm - N/A   Clear
6:56 PM 86.0 °F 89.4 °F 68.0 °F 55% 30.04 in 10.0 mi SE 5.8 mph - N/A   Clear
7:56 PM 82.9 °F 87.0 °F 70.0 °F 65% 30.04 in 10.0 mi East 4.6 mph - N/A   Clear
8:56 PM 80.1 °F 82.9 °F 69.1 °F 69% 30.04 in 10.0 mi ESE 3.5 mph - N/A   Clear
9:56 PM 78.1 °F - 70.0 °F 76% 30.07 in 10.0 mi Calm Calm - N/A   Clear
10:56 PM 75.0 °F - 70.0 °F 84% 30.08 in 10.0 mi Calm Calm - N/A   Clear
11:56 PM 75.0 °F - 69.1 °F 82% 30.09 in 10.0 mi Calm Calm - N/A   Clear